Location: Unspecified
(58.9933°N, 5.6375°E)
Time: 06:01:41
(UTC+01:00)

Cosmos 1674 - Visible Passes

Search period start: 02 March 2015 00:00
Search period end: 12 March 2015 00:00
Orbit: 509 x 535 km, 82.5° (Epoch: 28 February)

Date Brightness Start Highest point End Pass type
(mag) Time Alt. Az. Time Alt. Az. Time Alt. Az.
02 Mar 5.7 22:26:43 10° N 22:27:03 12° N 22:27:03 12° N visible
03 Mar 5.5 22:13:44 10° N 22:14:13 13° N 22:14:13 13° N visible
03 Mar 6.1 23:49:20 10° NNW 23:49:22 10° NNW 23:49:22 10° NNW visible
04 Mar 5.4 22:00:43 10° N 22:01:23 13° NNE 22:01:23 13° NNE visible
04 Mar 6.0 23:36:15 10° NNW 23:36:31 12° NNW 23:36:31 12° NNW visible
05 Mar 5.2 21:47:44 10° N 21:48:32 14° NNE 21:48:32 14° NNE visible
05 Mar 5.8 23:23:09 10° NNW 23:23:41 14° NNW 23:23:41 14° NNW visible
06 Mar 5.1 21:34:43 10° N 21:35:42 14° NNE 21:35:42 14° NNE visible
06 Mar 5.6 23:10:03 10° NNW 23:10:51 16° NNW 23:10:51 16° NNW visible
07 Mar 5.0 21:21:43 10° NNE 21:22:52 15° NNE 21:22:52 15° NNE visible
07 Mar 5.4 22:56:57 10° NNW 22:58:00 18° NNW 22:58:00 18° NNW visible
08 Mar 4.9 21:08:43 10° NNE 21:10:01 15° NNE 21:10:01 15° NNE visible
08 Mar 5.1 22:43:50 10° NNW 22:45:10 21° NNW 22:45:10 21° NNW visible
09 Mar 4.9 20:55:44 10° NNE 20:57:11 14° NE 20:57:11 14° NE visible
09 Mar 4.9 22:30:43 10° NNW 22:32:20 24° NNW 22:32:20 24° NNW visible
10 Mar 4.8 20:42:45 10° NNE 20:44:21 14° NE 20:44:21 14° NE visible
10 Mar 4.5 22:17:36 10° NNW 22:19:30 28° N 22:19:30 28° N visible
10 Mar 5.9 23:54:24 10° NW 23:54:38 11° NW 23:54:38 11° NW visible
11 Mar 4.8 20:29:48 10° NNE 20:31:31 13° NE 20:31:31 13° NE visible
11 Mar 4.2 22:04:29 10° N 22:06:40 32° N 22:06:40 32° N visible
11 Mar 5.7 23:41:08 10° NW 23:41:49 13° NW 23:41:49 13° NW visible
